Vorticity
20 19 13 18 14 15 20 18 19 19 13 12 12 12 15 18 13 6 16 14 7 13 10 11 10 10 11 8 7 5 7 13 2 3 8 7 5 0 7 19 23 8 8 9 8 17 21 4 19 9 9 8 4 4
21 16 20 20 13 19 15 17 18 17 21 21 10 10 11 11 11 9 13 15 8 9 9 9 9 10 11 8 10 4 5 11 2 2 6 13 11 3 19 23 15 7 5 5 14 8 10 13 10 8 9 5 6 -1
23 21 17 20 20 12 18 19 14 16 18 15 21 18 12 15 11 7 12 15 10 8 10 13 11 9 10 11 8 5 9 7 3 2 14 3 -7 -2 7 10 24 12 -4 9 10 -9 20 9 11 9 7 6 5 11
21 18 25 16 19 20 13 13 18 19 18 20 15 16 18 19 16 13 7 14 9 7 8 10 11 10 13 11 11 8 3 8 4 4 8 6 0 9 7 11 7 -1 9 10 -1 11 9 9 11 8 6 4 15 12
18 19 30 15 14 17 16 16 13 14 16 17 21 19 18 18 17 16 12 11 13 11 12 9 13 14 13 13 13 13 9 7 3 6 2 7 2 -2 -5 21 0 3 -9 2 16 8 9 7 12 9 7 15 11 18
18 16 23 34 12 14 17 18 17 14 15 15 13 14 15 15 13 11 9 10 11 11 11 11 13 15 12 14 14 12 9 7 1 6 8 11 9 -4 5 5 4 12 5 14 10 10 8 10 9 11 14 19 11 5
20 20 17 20 23 15 15 16 17 15 13 14 15 13 14 13 11 9 13 12 13 13 11 14 12 13 12 14 10 9 9 5 11 7 19 17 4 6 10 2 9 4 7 5 0 1 15 15 17 11 18 6 7 4
25 10 11 19 17 11 14 12 15 14 15 17 16 17 19 21 22 10 12 17 16 16 11 13 13 9 9 8 6 7 7 8 13 11 5 -1 5 13 2 3 17 6 13 6 -1 20 19 15 12 12 4 6 5 8
22 17 18 13 17 22 11 14 15 16 19 20 25 32 24 18 5 11 9 9 9 16 16 15 12 7 10 8 4 5 5 11 0 8 2 5 20 4 1 -2 -1 15 11 11 16 23 11 15 6 7 4 9 5 5
28 17 25 18 14 16 25 14 19 25 23 31 13 9 8 11 8 11 2 5 9 19 20 13 13 12 9 6 6 4 10 6 4 -2 1 20 1 8 5 8 23 6 17 10 18 11 14 7 6 6 8 4 6 7
23 20 28 24 23 19 20 22 13 10 13 6 0 8 6 10 2 3 6 10 15 17 15 12 11 11 8 9 5 6 8 2 -5 6 17 8 10 7 -2 17 21 16 20 14 13 13 6 4 8 7 4 8 7 10
37 27 27 30 3 16 23 15 9 11 3 -1 1 19 13 16 6 -5 -9 6 10 7 8 9 11 10 10 9 7 8 4 -4 7 5 17 15 2 -3 21 27 17 12 12 13 9 6 4 9 4 6 10 9 11 16
14 9 13 17 9 9 13 16 13 15 16 25 27 5 10 11 13 11 2 5 6 5 3 3 4 2 4 7 6 3 2 4 4 24 18 4 13 24 27 9 11 13 13 7 5 7 7 5 9 10 8 13 11 10
19 18 11 6 5 11 19 12 21 20 22 12 4 8 7 14 9 9 12 8 14 11 10 12 7 7 8 6 8 11 13 13 20 18 10 2 -10 41 4 11 13 10 7 5 8 6 7 9 9 9 14 10 8 13
12 -15 9 29 28 25 16 18 -15 -4 19 18 11 21 -3 -3 -26 -1 7 4 16 21 27 26 19 4 0 -1 -14 -16 1 33 14 -1 -13 4 53 9 10 14 8 6 5 8 6 8 9 9 11 14 10 8 10 13
13 15 10 4 2 -2 2 -0 22 16 15 -3 -9 4 9 21 16 7 6 8 20 23 19 7 29 33 29 21 36 29 26 8 -1 -3 4 28 7 17 13 7 4 6 8 8 9 9 9 11 13 9 8 7 11 14
4 9 16 11 11 14 11 2 2 6 5 4 -1 4 9 26 28 18 13 8 11 24 31 21 23 29 33 25 28 11 8 -1 7 -1 30 13 16 10 5 3 7 8 8 9 8 10 11 11 9 8 8 7 9 13
16 23 21 11 17 29 19 15 17 30 21 26 15 16 8 5 11 26 8 22 21 14 1 3 23 41 29 -8 -13 -5 3 4 14 25 12 11 7 3 4 8 7 8 10 8 10 10 11 9 8 8 7 8 9 12
-6 7 12 17 19 7 3 4 -4 -16 -13 9 2 6 6 13 33 40 33 7 19 22 25 22 13 1 2 4 3 1 33 37 14 14 9 7 3 5 8 7 10 11 8 10 9 10 9 8 8 8 8 9 10 13
7 -1 1 4 4 -3 4 4 9 -0 4 17 18 23 20 37 20 18 21 11 15 7 2 1 2 10 -9 7 44 24 9 12 11 8 5 3 6 9 10 8 11 8 9 9 10 10 7 7 7 8 9 10 10 13
7 16 3 1 -2 3 9 16 21 23 14 17 30 28 20 11 12 5 3 7 7 1 9 5 7 34 23 15 9 12 16 11 7 3 5 7 10 12 7 9 9 8 10 10 9 8 7 7 7 8 10 11 11 13
3 5 9 12 8 10 6 8 6 26 30 15 3 13 16 18 11 3 5 18 23 22 11 13 25 11 11 15 13 8 7 4 4 7 8 9 11 8 8 11 6 8 9 9 9 7 6 7 8 8 10 11 11 14
6 -3 8 4 3 14 17 31 22 13 -5 19 15 10 10 7 14 34 26 24 12 13 14 12 9 12 12 7 7 5 4 6 7 8 9 7 10 9 9 7 9 9 8 8 9 7 7 7 7 8 10 11 12 14
9 15 11 10 16 20 19 9 7 7 2 11 7 9 20 27 18 8 -1 8 8 12 9 15 12 6 8 7 5 5 7 6 6 9 8 11 9 7 6 7 9 9 9 7 6 9 7 6 7 9 9 11 12 13
20 17 26 23 21 10 3 10 17 15 18 25 33 27 13 14 9 10 14 9 12 18 12 7 6 6 6 5 6 6 5 7 7 9 8 12 7 6 6 8 9 9 9 7 7 10 7 7 7 8 9 11 11 14
15 13 14 11 19 28 30 29 29 19 13 13 7 4 7 9 8 8 15 14 7 5 6 6 5 4 5 7 7 6 7 9 9 10 12 10 7 5 7 9 9 7 6 7 10 9 8 6 5 7 10 10 10 14
19 25 25 17 11 7 3 3 2 6 10 10 12 9 9 14 16 14 9 7 7 7 6 5 6 7 7 7 7 7 9 10 9 10 10 7 7 7 9 9 9 6 7 8 10 10 7 4 4 6 8 10 10 13
13 5 4 6 2 4 5 9 9 7 3 7 15 18 15 8 7 8 8 7 6 5 5 6 7 7 7 8 7 6 10 9 9 11 9 6 7 9 7 9 7 7 8 9 10 9 7 6 5 4 7 9 10 11
9 6 4 6 9 11 11 10 6 12 13 15 8 5 10 10 9 5 5 5 6 6 7 7 7 7 6 6 6 9 13 10 12 12 6 5 7 8 9 8 7 7 9 10 10 11 9 6 4 3 6 9 10 10
7 6 8 10 13 10 8 12 14 12 9 5 7 9 9 7 5 5 5 5 6 7 7 7 6 5 6 7 12 17 12 11 11 11 5 5 6 8 8 8 8 7 10 10 11 12 9 6 4 1 3 7 9 10
8 8 7 6 8 13 16 15 10 6 5 8 9 7 5 4 5 6 6 8 7 6 6 6 8 7 6 17 19 10 6 8 11 9 8 7 7 7 8 9 8 8 10 11 13 12 8 5 4 3 2 7 10 11
6 8 8 14 14 14 10 7 7 8 8 7 6 7 6 6 7 7 7 6 5 11 7 8 12 4 12 18 11 2 0 5 9 9 6 5 6 7 9 9 8 8 9 13 13 11 8 5 4 2 2 6 10 10
13 13 15 12 8 8 8 7 7 9 8 7 7 5 7 5 7 7 6 7 15 6 3 18 8 4 16 19 10 2 2 8 8 6 6 6 7 9 10 9 8 9 12 13 12 10 8 6 5 3 2 7 10 11
Height
5304 5316 5326 5338 5351 5363 5376 5389 5402 5417 5432 5445 5459 5472 5486 5499 5513 5523 5539 5547 5559 5570 5578 5588 5596 5603 5612 5619 5626 5633 5637 5640 5644 5648 5651 5653 5656 5657 5655 5656 5656 5658 5655 5655 5652 5648 5645 5644 5639 5636 5629 5625 5622 5617
5288 5299 5311 5323 5335 5348 5361 5374 5387 5401 5416 5430 5444 5457 5471 5485 5498 5510 5523 5537 5545 5555 5569 5575 5584 5592 5599 5607 5615 5620 5625 5631 5636 5639 5643 5645 5647 5647 5646 5645 5648 5646 5648 5645 5643 5640 5636 5632 5627 5623 5620 5616 5611 5606
5274 5284 5296 5308 5321 5335 5348 5361 5374 5388 5402 5417 5431 5444 5459 5471 5483 5498 5513 5523 5532 5544 5554 5564 5573 5580 5587 5594 5602 5610 5616 5622 5627 5631 5633 5635 5635 5638 5638 5639 5638 5637 5636 5634 5632 5631 5627 5622 5618 5614 5610 5605 5601 5595
5263 5272 5282 5295 5308 5322 5336 5350 5363 5377 5392 5405 5420 5434 5448 5462 5474 5486 5499 5514 5521 5533 5541 5554 5562 5569 5577 5583 5593 5600 5608 5613 5618 5621 5624 5625 5628 5630 5630 5628 5628 5628 5626 5627 5624 5621 5617 5613 5609 5604 5600 5595 5590 5584
5253 5262 5271 5284 5298 5312 5326 5340 5355 5369 5383 5397 5411 5425 5439 5453 5466 5478 5488 5500 5509 5520 5533 5543 5550 5560 5567 5573 5579 5589 5598 5603 5608 5611 5613 5616 5620 5621 5621 5619 5618 5620 5619 5618 5614 5613 5609 5604 5599 5594 5590 5586 5580 5573
5244 5254 5264 5275 5289 5303 5318 5332 5346 5361 5376 5390 5404 5418 5432 5445 5456 5466 5474 5483 5498 5514 5523 5529 5539 5546 5554 5562 5571 5579 5587 5593 5599 5602 5605 5607 5609 5613 5611 5609 5610 5611 5610 5609 5606 5602 5598 5594 5590 5586 5581 5576 5570 5564
5236 5247 5258 5270 5284 5297 5311 5325 5340 5355 5370 5385 5399 5414 5426 5437 5447 5457 5469 5487 5495 5502 5508 5515 5523 5533 5544 5553 5561 5570 5579 5584 5590 5593 5595 5598 5600 5603 5601 5599 5603 5604 5601 5600 5597 5592 5588 5585 5582 5577 5572 5567 5560 5554
5230 5242 5254 5266 5279 5293 5307 5321 5336 5350 5365 5380 5394 5408 5420 5431 5441 5451 5467 5479 5485 5491 5497 5502 5516 5529 5537 5547 5557 5565 5570 5577 5582 5584 5588 5590 5591 5593 5590 5595 5597 5595 5592 5589 5586 5582 5579 5576 5572 5568 5563 5557 5551 5543
5226 5238 5251 5264 5277 5290 5304 5319 5333 5348 5362 5376 5390 5404 5415 5423 5434 5446 5458 5469 5476 5483 5490 5501 5513 5523 5532 5541 5549 5557 5562 5568 5573 5575 5579 5581 5581 5582 5587 5586 5586 5582 5581 5578 5576 5574 5570 5567 5563 5559 5553 5547 5539 5531
5223 5236 5249 5262 5276 5289 5303 5318 5332 5346 5360 5374 5388 5398 5408 5419 5432 5444 5455 5459 5466 5472 5482 5492 5504 5515 5527 5536 5543 5550 5555 5559 5563 5567 5569 5568 5570 5578 5580 5576 5575 5573 5570 5570 5568 5566 5564 5561 5555 5550 5545 5537 5530 5524
5224 5237 5250 5264 5279 5291 5305 5320 5333 5346 5358 5367 5378 5394 5405 5416 5430 5439 5445 5449 5455 5465 5476 5488 5500 5510 5521 5528 5536 5541 5547 5550 5552 5557 5558 5554 5567 5575 5570 5568 5565 5564 5563 5562 5561 5559 5556 5551 5547 5542 5535 5530 5523 5515
5230 5242 5255 5268 5281 5295 5308 5321 5333 5342 5353 5368 5380 5390 5401 5412 5420 5428 5435 5439 5449 5462 5475 5488 5499 5507 5515 5522 5528 5535 5537 5540 5541 5544 5545 5550 5565 5565 5561 5559 5558 5556 5556 5556 5553 5551 5548 5544 5539 5534 5529 5522 5515 5506
5244 5254 5265 5276 5289 5301 5312 5323 5333 5347 5358 5369 5379 5388 5395 5402 5407 5413 5418 5431 5443 5458 5472 5484 5492 5499 5508 5515 5522 5525 5525 5528 5532 5534 5538 5552 5555 5554 5552 5551 5551 5550 5550 5549 5548 5545 5541 5537 5533 5528 5520 5514 5504 5493
5256 5265 5276 5286 5297 5306 5317 5328 5338 5348 5360 5369 5376 5384 5391 5397 5400 5412 5426 5440 5450 5462 5472 5479 5486 5493 5501 5509 5511 5511 5516 5521 5522 5531 5541 5545 5547 5546 5545 5546 5544 5544 5544 5543 5542 5538 5534 5531 5526 5519 5512 5503 5493 5485
5271 5279 5288 5296 5304 5314 5324 5335 5345 5355 5365 5373 5382 5389 5394 5401 5415 5426 5434 5442 5450 5457 5467 5475 5481 5487 5495 5497 5499 5505 5510 5511 5523 5532 5537 5538 5537 5537 5539 5537 5538 5539 5539 5537 5534 5532 5528 5522 5517 5511 5502 5493 5485 5476
5283 5292 5300 5308 5316 5325 5335 5344 5352 5362 5371 5379 5385 5393 5401 5409 5418 5426 5432 5439 5446 5452 5458 5464 5469 5476 5481 5484 5489 5494 5502 5516 5525 5528 5530 5531 5532 5533 5532 5533 5533 5534 5533 5531 5528 5525 5519 5515 5510 5502 5493 5486 5478 5468
5296 5301 5308 5318 5326 5334 5343 5353 5361 5369 5376 5383 5389 5396 5401 5408 5416 5423 5430 5437 5441 5446 5452 5459 5462 5466 5474 5478 5488 5500 5510 5516 5519 5522 5524 5525 5526 5527 5528 5528 5529 5528 5527 5524 5521 5517 5513 5508 5501 5492 5486 5478 5469 5460
5308 5314 5320 5327 5334 5342 5350 5357 5363 5369 5376 5383 5388 5395 5401 5407 5414 5420 5426 5431 5436 5443 5450 5455 5461 5468 5477 5487 5497 5503 5507 5510 5514 5516 5517 5519 5521 5523 5523 5524 5524 5522 5520 5517 5514 5509 5505 5499 5491 5486 5478 5470 5461 5451
5317 5323 5328 5334 5340 5347 5352 5359 5365 5370 5376 5382 5388 5394 5400 5405 5411 5416 5421 5429 5435 5442 5448 5455 5464 5472 5481 5487 5492 5497 5500 5504 5507 5509 5512 5515 5517 5518 5519 5519 5518 5516 5513 5510 5505 5501 5496 5490 5485 5478 5470 5462 5453 5443
5323 5329 5335 5341 5348 5353 5358 5362 5367 5373 5377 5383 5388 5392 5399 5403 5410 5416 5423 5431 5438 5445 5452 5459 5467 5473 5479 5484 5488 5491 5495 5498 5501 5505 5509 5512 5514 5515 5515 5513 5511 5508 5505 5501 5498 5493 5487 5483 5477 5470 5462 5454 5445 5436
5329 5334 5340 5345 5351 5357 5361 5365 5370 5375 5379 5384 5389 5395 5401 5407 5414 5420 5425 5431 5440 5447 5454 5460 5465 5470 5475 5479 5484 5487 5490 5494 5499 5504 5507 5508 5509 5509 5507 5505 5503 5500 5498 5495 5490 5485 5481 5476 5470 5462 5454 5446 5438 5430
5336 5341 5346 5350 5355 5359 5364 5369 5373 5378 5383 5387 5392 5398 5404 5408 5414 5420 5427 5432 5438 5446 5452 5459 5465 5469 5474 5478 5481 5486 5490 5494 5498 5501 5503 5503 5502 5501 5500 5498 5496 5494 5491 5487 5483 5479 5474 5469 5462 5454 5446 5439 5432 5424
5343 5346 5350 5354 5358 5362 5367 5370 5375 5380 5385 5389 5394 5399 5404 5410 5416 5423 5428 5435 5441 5447 5454 5459 5464 5468 5472 5476 5481 5485 5489 5492 5495 5496 5497 5496 5495 5495 5493 5491 5490 5487 5483 5480 5477 5472 5467 5461 5454 5447 5440 5433 5426 5418
5347 5350 5353 5356 5360 5365 5369 5374 5379 5382 5386 5392 5397 5402 5407 5413 5420 5426 5432 5437 5443 5449 5455 5459 5463 5468 5473 5477 5481 5484 5487 5488 5490 5490 5490 5489 5489 5489 5487 5485 5483 5480 5477 5473 5468 5464 5459 5453 5447 5440 5434 5427 5420 5413
5351 5355 5357 5360 5364 5370 5374 5378 5383 5388 5392 5396 5401 5406 5411 5417 5423 5429 5435 5441 5446 5450 5454 5459 5464 5468 5473 5476 5479 5481 5482 5484 5484 5484 5484 5484 5484 5482 5480 5478 5476 5473 5469 5466 5461 5457 5452 5446 5440 5434 5427 5421 5415 5408
5354 5359 5363 5366 5370 5374 5379 5383 5387 5392 5397 5402 5406 5411 5416 5421 5426 5432 5436 5441 5445 5450 5454 5459 5464 5468 5471 5473 5476 5478 5478 5479 5479 5479 5478 5478 5477 5475 5474 5472 5469 5466 5462 5458 5453 5449 5444 5439 5433 5427 5421 5416 5409 5402
5358 5362 5365 5370 5375 5379 5383 5387 5391 5396 5401 5406 5412 5417 5421 5425 5429 5434 5438 5442 5446 5451 5456 5460 5463 5466 5469 5471 5472 5473 5473 5473 5472 5472 5472 5472 5470 5468 5467 5465 5462 5458 5454 5450 5446 5441 5437 5431 5426 5422 5416 5410 5403 5396
5364 5368 5372 5376 5380 5383 5387 5392 5395 5399 5404 5409 5414 5418 5423 5427 5432 5436 5440 5444 5448 5452 5455 5458 5461 5463 5466 5467 5467 5467 5466 5465 5466 5467 5467 5466 5464 5461 5459 5457 5454 5450 5446 5442 5438 5433 5429 5424 5420 5415 5410 5403 5397 5390
5368 5372 5376 5379 5382 5387 5391 5395 5400 5404 5407 5410 5415 5420 5424 5428 5432 5436 5440 5443 5446 5449 5453 5455 5457 5459 5460 5461 5461 5460 5461 5461 5461 5461 5460 5459 5456 5454 5452 5449 5446 5442 5438 5434 5429 5425 5421 5417 5413 5409 5403 5398 5391 5384
5368 5372 5376 5380 5385 5389 5393 5396 5398 5402 5406 5411 5415 5419 5423 5427 5431 5435 5438 5441 5444 5446 5449 5451 5453 5453 5453 5454 5455 5455 5455 5455 5454 5453 5452 5450 5447 5446 5443 5441 5437 5434 5430 5425 5421 5417 5413 5410 5407 5402 5397 5391 5384 5378
5369 5372 5376 5380 5384 5387 5391 5394 5398 5402 5406 5410 5414 5418 5422 5425 5429 5432 5435 5438 5440 5442 5443 5445 5446 5447 5447 5447 5447 5447 5447 5446 5445 5445 5443 5441 5439 5438 5435 5432 5429 5425 5421 5416 5412 5409 5406 5403 5399 5394 5389 5383 5377 5370
5368 5371 5374 5378 5382 5386 5390 5394 5398 5402 5405 5409 5413 5417 5420 5423 5426 5429 5431 5433 5435 5437 5438 5438 5439 5440 5440 5439 5439 5439 5439 5439 5438 5436 5435 5433 5431 5429 5426 5423 5419 5415 5411 5407 5404 5401 5398 5395 5391 5386 5380 5375 5369 5363
5366 5369 5373 5376 5380 5384 5388 5393 5396 5400 5403 5407 5410 5413 5416 5419 5422 5424 5426 5427 5429 5430 5431 5431 5431 5430 5430 5430 5431 5432 5432 5430 5429 5427 5426 5424 5421 5419 5416 5413 5409 5405 5401 5398 5395 5393 5390 5386 5381 5376 5371 5366 5360 5354